Fort Covington, New York, United States (12937)
Lat: 44.99N, Lon: 74.5W
Wx Zone: NYZ027
Local Info
Past Weather Observations for Wednesday, July 1, 2015

NOTE: This archive is for the closest National Weather Service station to Fort Covington. Information may differ from the station used for current weather conditions.

Click here for Long-term Archive

Time Weather Temperature Dewpoint Humidity Pressure Winds Precip Visibility
23:53
Partly Cloudy
57°F / 14°C 50°F / 10°C 77% 29.83 in
(1010 mb)
SSW 11.5 mph
(SSW 19 kph)
- 10SM
22:53
Mostly Cloudy
59°F / 15°C 52°F / 11°C 77% 29.8 in
(1009 mb)
W 15 mph
(W 24 kph)
- 10SM
22:42
Mostly Cloudy
59°F / 15°C 52°F / 11°C 77% 29.8 in
(1009 mb)
W 15 mph
(W 24 kph)
- 10SM
21:53
Partly Cloudy
61°F / 16°C 54°F / 12°C 77% 29.8 in
(1009 mb)
WNW 18.4 mph
(WNW 30 kph)
- 10SM
20:53
Mostly Cloudy
63°F / 17°C 54°F / 12°C 73% 29.77 in
(1008 mb)
W 16.1 mph
(W 26 kph)
- 10SM
19:53
Partly Cloudy
63°F / 17°C 57°F / 14°C 83% 29.74 in
(1007 mb)
SSW 6.9 mph
(SSW 11 kph)
- 10SM
18:53
Mostly Cloudy
64°F / 18°C 57°F / 14°C 78% 29.71 in
(1006 mb)
SSW 11.5 mph
(SSW 19 kph)
- 10SM
17:53
Overcast
66°F / 19°C 61°F / 16°C 83% 29.68 in
(1005 mb)
SSW 9.2 mph
(SSW 15 kph)
- 10SM
17:43
Overcast
64°F / 18°C 61°F / 16°C 88% 29.68 in
(1005 mb)
W 10.4 mph
(W 17 kph)
- 10SM
17:15
Overcast
64°F / 18°C 61°F / 16°C 88% 29.68 in
(1005 mb)
SSW 12.7 mph
(SSW 20 kph)
- 10SM
17:08
Overcast
64°F / 18°C 61°F / 16°C 88% 29.68 in
(1005 mb)
SSW 12.7 mph
(SSW 20 kph)
- 10SM
16:53
Overcast
64°F / 18°C 61°F / 16°C 88% 29.68 in
(1005 mb)
SSW 11.5 mph
(SSW 19 kph)
0.02 in
(0.51 mm)
10SM
16:45
Overcast
64°F / 18°C 61°F / 16°C 88% 29.65 in
(1004 mb)
SSW 10.4 mph
(SSW 17 kph)
0.02 in
(0.51 mm)
10SM
15:53
Overcast
Light Rain
64°F / 18°C 61°F / 16°C 88% 29.65 in
(1004 mb)
SSW 10.4 mph
(SSW 17 kph)
0.01 in
(0.25 mm)
10SM
15:33
Overcast
Light Rain
68°F / 20°C 61°F / 16°C 78% 29.62 in
(1003 mb)
SSW 17.3 mph
(SSW 28 kph)
0.00 in
(0.00 mm)
8SM
14:53
Overcast
70°F / 21°C 61°F / 16°C 73% 29.62 in
(1003 mb)
SW 18.4 mph
(SW 30 kph)
- 9SM
14:09
Mostly Cloudy
72°F / 22°C 63°F / 17°C 73% 29.62 in
(1003 mb)
SW 15 mph
(SW 24 kph)
- 10SM
13:53
Mostly Cloudy
72°F / 22°C 63°F / 17°C 73% 29.62 in
(1003 mb)
SW 18.4 mph
(SW 30 kph)
- 10SM
12:53
Overcast
70°F / 21°C 63°F / 17°C 78% 29.62 in
(1003 mb)
SW 11.5 mph
(SW 19 kph)
0.00 in
(0.00 mm)
8SM
12:35
Mostly Cloudy
70°F / 21°C 64°F / 18°C 83% 29.62 in
(1003 mb)
SW 12.7 mph
(SW 20 kph)
0.00 in
(0.00 mm)
8SM
12:06
Overcast
68°F / 20°C 64°F / 18°C 88% 29.62 in
(1003 mb)
SW 9.2 mph
(SW 15 kph)
0.00 in
(0.00 mm)
10SM
11:53
Overcast
Light Rain
66°F / 19°C 64°F / 18°C 94% 29.62 in
(1003 mb)
SW 11.5 mph
(SW 19 kph)
0.15 in
(3.81 mm)
10SM
11:44
Overcast
Light Rain
66°F / 19°C 64°F / 18°C 94% 29.65 in
(1004 mb)
SW 11.5 mph
(SW 19 kph)
0.15 in
(3.81 mm)
10SM
11:37
Overcast
Rain
66°F / 19°C 64°F / 18°C 94% 29.65 in
(1004 mb)
SW 8.1 mph
(SW 13 kph)
0.15 in
(3.81 mm)
2 1/2SM
11:23
Overcast
Light Rain
66°F / 19°C 64°F / 18°C 94% 29.65 in
(1004 mb)
SW 9.2 mph
(SW 15 kph)
0.11 in
(2.79 mm)
10SM
11:14
Overcast
Thunder Storms
66°F / 19°C 64°F / 18°C 94% 29.65 in
(1004 mb)
SW 9.2 mph
(SW 15 kph)
0.11 in
(2.79 mm)
9SM
11:07
Overcast
Light Rain
66°F / 19°C 64°F / 18°C 94% 29.65 in
(1004 mb)
SW 8.1 mph
(SW 13 kph)
0.11 in
(2.79 mm)
2SM
10:53
Overcast
Heavy Rain
66°F / 19°C 63°F / 17°C 88% 29.65 in
(1004 mb)
SW 10.4 mph
(SW 17 kph)
0.18 in
(4.57 mm)
1 1/4SM
10:45
Overcast
Heavy Rain
66°F / 19°C 63°F / 17°C 88% 29.65 in
(1004 mb)
SW 8.1 mph
(SW 13 kph)
0.11 in
(2.79 mm)
1 3/4SM
10:41
Overcast
Rain
66°F / 19°C 63°F / 17°C 88% 29.65 in
(1004 mb)
SW 8.1 mph
(SW 13 kph)
0.08 in
(2.03 mm)
2 1/2SM
09:53
Overcast
Light Rain
66°F / 19°C 64°F / 18°C 94% 29.65 in
(1004 mb)
SSE 4.6 mph
(SSE 7 kph)
0.00 in
(0.00 mm)
7SM
09:51
Overcast
Light Rain
66°F / 19°C 64°F / 18°C 94% 29.65 in
(1004 mb)
SSE 5.8 mph
(SSE 9 kph)
0.00 in
(0.00 mm)
9SM
09:06
Overcast
66°F / 19°C 64°F / 18°C 94% 29.65 in
(1004 mb)
S 5.8 mph
(S 9 kph)
- 10SM
08:53
Overcast
66°F / 19°C 63°F / 17°C 88% 29.65 in
(1004 mb)
S 4.6 mph
(S 7 kph)
0.03 in
(0.76 mm)
10SM
08:48
Overcast
66°F / 19°C 63°F / 17°C 88% 29.65 in
(1004 mb)
S 4.6 mph
(S 7 kph)
0.03 in
(0.76 mm)
10SM
07:53
Overcast
Light Rain
64°F / 18°C 63°F / 17°C 94% 29.68 in
(1005 mb)
Calm 0.00 in
(0.00 mm)
9SM
07:24
Mostly Cloudy
64°F / 18°C 63°F / 17°C 94% 29.68 in
(1005 mb)
Calm - 9SM
06:53
Overcast
63°F / 17°C 61°F / 16°C 94% 29.68 in
(1005 mb)
Calm 0.00 in
(0.00 mm)
7SM
05:53
Overcast
Light Rain
63°F / 17°C 61°F / 16°C 94% 29.68 in
(1005 mb)
Calm 0.00 in
(0.00 mm)
9SM
04:53
Overcast
63°F / 17°C 61°F / 16°C 94% 29.71 in
(1006 mb)
Calm - 9SM
03:53
Overcast
63°F / 17°C 61°F / 16°C 94% 29.71 in
(1006 mb)
E 3.5 mph
(E 6 kph)
- 9SM
03:06
Overcast
61°F / 16°C 59°F / 15°C 94% 29.74 in
(1007 mb)
NE 3.5 mph
(NE 6 kph)
- 9SM
02:53
Overcast
61°F / 16°C 59°F / 15°C 94% 29.74 in
(1007 mb)
ENE 3.5 mph
(ENE 6 kph)
- 8SM
01:53
Mostly Cloudy
61°F / 16°C 59°F / 15°C 94% 29.77 in
(1008 mb)
Calm - 9SM
00:53
Overcast
61°F / 16°C 59°F / 15°C 94% 29.77 in
(1008 mb)
NE 4.6 mph
(NE 7 kph)
- 9SM
Time Weather Temperature Dewpoint Humidity Pressure Winds Precip Visibility


Weather for websites

WeatherForYou.com, LLC is not responsible for any damages or problems caused by this service. Current weather conditions are obtained from the closest station including government and personal stations which may have varying degrees of accuracy. Weather forecasts are derived from the NOAA NDFD. Like all things, this site belongs to Jesus Christ... He just trusts us to maintain it. If you have any questions or comments email webmaster@weatherforyou.com

Copyright © 2015, WeatherForYou.com LLC. All rights reserved.